{"data":{"norad_id":58725,"intl_designator":"2024-002W","name":"STARLINK-30856","alt_names":[],"object_type":"PAYLOAD","status":"ACTIVE","operator":null,"country":"US","launch_date":"2024-01-03","launch_site_code":"AFWTR","launch_vehicle":null,"mission":null,"orbit_class":"UNKNOWN","rcs_meters":null,"size_class":null,"mass_kg":null,"dimensions":null,"purposes":["comms"],"wikipedia_slug":null,"has_3d_model":false,"image_url":null,"decayed_at":null,"tle_current":{"epoch":"2026-09-20T21:47:53.083392Z","epoch_age_seconds":114513,"freshness":"FRESH","line1":"1 58725U 24002W   26263.90825328  .00001862  00000+0  67910-4 0  9994","line2":"2 58725  53.1584  41.7804 0001373  84.5566 275.5593 15.33554631151927","mean_motion":15.33554631,"eccentricity":0.0001373,"inclination_deg":53.1584,"raan_deg":41.7804,"arg_perigee_deg":84.5566,"mean_anomaly_deg":275.5593,"bstar":6.791e-5,"rev_number":15192,"period_min":93.89949147498,"perigee_km":464.27741668075,"apogee_km":466.15660169167,"semimajor_km":6843.3540091862,"source":"CELESTRAK","updated_at":"2026-09-21T09:00:33.951239Z"}}}